GW5080 Weather Reports


time (UTC)temp
F
wind
direction
speed
knots
gust
knots
rain 1hr
in
rain 24hr
in
rain mn
in
humidity
%
barometer
mb
20260510211504 85 292 3.5 10.4 0.00 0.00 0.00 38 1014.1
20260510211005 84 312 0.9 1.7 0.00 0.00 0.00 39 1014.3
20260510210505 84 328 0.9 1.7 0.00 0.00 0.00 41 1014.3
20260510210005 84 285 1.7 4.3 0.00 0.00 0.00 39 1014.3
20260510205504 84 242 4.3 6.1 0.00 0.00 0.00 39 1014.1
20260510205004 85 222 4.3 11.3 0.00 0.00 0.00 41 1014.1
20260510204504 85 177 4.3 6.1 0.00 0.00 0.00 38 1014.1
20260510204004 85 270 4.3 7.0 0.00 0.00 0.00 40 1014.2
20260510203004 84 177 2.6 6.1 0.00 0.00 0.00 40 1014.2
20260510202504 85 235 4.3 7.0 0.00 0.00 0.00 38 1014.4
20260510201504 84 282 3.5 6.1 0.00 0.00 0.00 39 1014.4
20260510201005 83 297 1.7 5.2 0.00 0.00 0.00 43 1014.3
20260510200504 84 247 5.2 10.4 0.00 0.00 0.00 39 1014.3
20260510200006 85 211 3.5 7.8 0.00 0.00 0.00 40 1014.3
20260510195504 84 312 2.6 5.2 0.00 0.00 0.00 42 1014.3
20260510195004 84 302 0.9 5.2 0.00 0.00 0.00 43 1014.3
20260510194004 83 228 1.7 5.2 0.00 0.00 0.00 43 1014.5
20260510193004 84 0 2.6 6.1 0.00 0.00 0.00 46 1014.5
20260510192504 83 298 4.3 5.2 0.00 0.00 0.00 43 1014.7
20260510192004 83 337 4.3 6.1 0.00 0.00 0.00 43 1014.7
20260510191004 83 343 5.2 8.7 0.00 0.00 0.00 44 1015.0
20260510190004 82 107 1.7 1.7 0.00 0.00 0.00 45 1015.0
20260510185504 82 274 1.7 6.1 0.00 0.00 0.00 43 1015.0
20260510185004 83 300 1.7 4.3 0.00 0.00 0.00 46 1015.0
20260510184504 82 226 0.9 2.6 0.00 0.00 0.00 50 1015.0
20260510184004 81 182 1.7 2.6 0.00 0.00 0.00 54 1015.0
20260510183504 81 186 1.7 2.6 0.00 0.00 0.00 53 1015.0
20260510183004 81 180 2.6 5.2 0.00 0.00 0.00 52 1015.1
20260510182504 81 182 4.3 5.2 0.00 0.00 0.00 52 1015.3
20260510182004 80 182 2.6 5.2 0.00 0.00 0.00 54 1015.3
20260510181506 80 180 2.6 5.2 0.00 0.00 0.00 52 1015.3
20260510181004 80 201 4.3 6.1 0.00 0.00 0.00 53 1015.3
20260510180504 81 192 4.3 7.0 0.00 0.00 0.00 54 1015.3
20260510180005 82 156 1.7 4.3 0.00 0.00 0.00 54 1015.3
20260510175504 81 146 1.7 6.1 0.00 0.00 0.00 51 1015.4
20260510175005 82 225 2.6 5.2 0.00 0.00 0.00 51 1015.4
20260510174504 82 283 1.7 4.3 0.00 0.00 0.00 50 1015.4
20260510174004 81 356 2.6 4.3 0.00 0.00 0.00 54 1015.4
20260510173504 80 316 0.9 5.2 0.00 0.00 0.00 55 1015.4
20260510173004 80 243 2.6 5.2 0.00 0.00 0.00 52 1015.4
20260510172505 81 227 3.5 6.1 0.00 0.00 0.00 55 1015.5
20260510172004 80 172 1.7 5.2 0.00 0.00 0.00 51 1015.5
20260510171505 80 157 2.6 6.1 0.00 0.00 0.00 57 1015.5
20260510171004 81 207 5.2 8.7 0.00 0.00 0.00 54 1015.5
20260510170004 80 196 2.6 5.2 0.00 0.00 0.00 54 1015.5
20260510165504 80 164 0.9 2.6 0.00 0.00 0.00 56 1015.6
20260510165004 79 270 1.7 2.6 0.00 0.00 0.00 56 1015.6
20260510163504 79 255 3.5 5.2 0.00 0.00 0.00 57 1015.9
20260510162504 79 237 2.6 5.2 0.00 0.00 0.00 58 1015.8
20260510162004 79 213 1.7 4.3 0.00 0.00 0.00 55 1015.8
20260510161004 80 36 2.6 6.1 0.00 0.00 0.00 54 1016.0
20260510155504 79 42 3.5 7.0 0.00 0.00 0.00 59 1016.2
20260510155004 78 89 2.6 5.2 0.00 0.00 0.00 59 1016.2
20260510154504 78 45 3.5 6.1 0.00 0.00 0.00 60 1016.2
20260510153504 77 324 2.6 6.1 0.00 0.00 0.00 59 1016.1
20260510153004 78 321 2.6 10.4 0.00 0.00 0.00 62 1016.1
20260510152504 78 1 4.3 8.7 0.00 0.00 0.00 62 1016.0
20260510152004 78 336 3.5 6.1 0.00 0.00 0.00 64 1016.0
20260510151504 77 221 2.6 6.1 0.00 0.00 0.00 68 1016.0
20260510151004 78 200 1.7 6.1 0.00 0.00 0.00 67 1016.1
20260510150505 77 211 2.6 4.3 0.00 0.00 0.00 67 1016.1
20260510150004 77 334 2.6 4.3 0.00 0.00 0.00 66 1016.1
20260510144004 76 327 3.5 5.2 0.00 0.00 0.00 70 1016.0
20260510143504 76 310 2.6 4.3 0.00 0.00 0.00 71 1016.0
20260510143004 76 293 2.6 5.2 0.00 0.00 0.00 70 1016.0
20260510142504 75 304 1.7 4.3 0.00 0.00 0.00 72 1016.1
20260510141504 74 282 1.7 5.2 0.00 0.00 0.00 72 1016.1
20260510140504 74 240 2.6 4.3 0.00 0.00 0.00 75 1016.0
20260510140004 74 308 1.7 4.3 0.00 0.00 0.00 73 1016.0
20260510135504 74 288 1.7 5.2 0.00 0.00 0.00 75 1016.0
20260510135004 73 349 1.7 5.2 0.00 0.00 0.00 75 1016.0
20260510134503 73 355 1.7 5.2 0.00 0.00 0.00 77 1015.9
20260510134004 72 294 2.6 5.2 0.00 0.00 0.00 77 1015.7
20260510133504 73 290 1.7 5.2 0.00 0.00 0.00 76 1015.7
20260510133004 72 342 2.6 4.3 0.00 0.00 0.00 76 1015.7
20260510132504 72 187 1.7 2.6 0.00 0.00 0.00 78 1015.8
20260510132004 72 279 2.6 4.3 0.00 0.00 0.00 79 1015.8
20260510131505 71 312 1.7 2.6 0.00 0.00 0.00 81 1015.7
20260510130504 70 339 2.6 6.1 0.00 0.00 0.00 85 1015.5
20260510130004 69 342 1.7 5.2 0.00 0.00 0.00 89 1015.6
20260510125505 68 319 1.7 4.3 0.00 0.00 0.00 91 1015.6
20260510125004 68 204 0.9 2.6 0.00 0.00 0.00 94 1015.6
20260510124503 67 282 1.7 2.6 0.00 0.00 0.00 95 1015.6
20260510123503 66 219 0.9 0.9 0.00 0.00 0.00 96 1015.5
20260510123004 66 295 1.7 4.3 0.00 0.00 0.00 96 1015.6
20260510122004 65 298 0.9 1.7 0.00 0.00 0.00 96 1015.6
20260510121503 64 296 0.9 0.9 0.00 0.00 0.00 96 1015.6
20260510121003 63 292 0.0 0.9 0.00 0.00 0.00 96 1015.4
20260510120504 63 273 0.0 0.9 0.00 0.00 0.00 96 1015.4
20260510115505 61 257 0.0 0.0 0.00 0.00 0.00 96 1015.1
20260510115004 60 257 0.0 0.0 0.00 0.00 0.00 96 1015.1
20260510114504 60 257 0.0 0.0 0.00 0.00 0.00 96 1015.1
20260510114004 60 257 0.0 0.0 0.00 0.00 0.00 96 1015.0
20260510113504 59 257 0.0 0.0 0.00 0.00 0.00 96 1015.0
20260510113003 59 257 0.0 0.0 0.00 0.00 0.00 96 1015.0
20260510112504 59 257 0.0 0.9 0.00 0.00 0.00 96 1015.0
20260510112008 59 257 0.0 0.9 0.00 0.00 0.00 96 1015.0
20260510111504 58 257 0.0 0.9 0.00 0.00 0.00 96 1015.0
20260510111006 58 2 0.0 0.9 0.00 0.00 0.00 96 1014.7
20260510110504 58 114 0.0 0.9 0.00 0.00 0.00 96 1014.7
20260510110005 58 46 0.0 0.0 0.00 0.00 0.00 96 1014.7
20260510105504 58 271 0.0 0.0 0.00 0.00 0.00 96 1014.5
20260510105004 58 271 0.0 1.7 0.00 0.00 0.00 96 1014.5
20260510104504 58 325 0.9 0.9 0.00 0.00 0.00 96 1014.4
20260510104004 57 325 0.0 0.0 0.00 0.00 0.00 96 1014.1
20260510103503 57 325 0.0 0.0 0.00 0.00 0.00 96 1014.1
20260510103004 57 325 0.0 0.9 0.00 0.00 0.00 95 1014.1
20260510102504 58 325 0.9 0.9 0.00 0.00 0.00 96 1013.9
20260510101504 58 325 0.9 0.9 0.00 0.00 0.00 96 1013.9
20260510100504 58 325 0.9 0.9 0.00 0.00 0.00 96 1013.9
20260510100004 57 325 0.9 0.9 0.00 0.00 0.00 95 1013.8
20260510095004 57 325 0.0 0.0 0.00 0.00 0.00 96 1013.7
20260510094504 57 325 0.0 0.9 0.00 0.00 0.00 95 1013.6
20260510094003 57 325 0.0 0.0 0.00 0.00 0.00 95 1013.5
20260510093503 57 325 0.0 0.0 0.00 0.00 0.00 95 1013.5
20260510093004 57 325 0.9 1.7 0.00 0.00 0.00 95 1013.5
20260510092504 57 325 0.9 1.7 0.00 0.00 0.00 95 1013.3
20260510092005 57 209 0.0 0.9 0.00 0.00 0.00 95 1013.3
20260510091503 57 209 0.9 0.9 0.00 0.00 0.00 95 1013.3
20260510090505 57 209 0.9 0.9 0.00 0.00 0.00 95 1013.1
20260510090004 57 209 0.0 0.0 0.00 0.00 0.00 95 1013.1
20260510085503 57 209 0.0 0.0 0.00 0.00 0.00 95 1013.0
20260510085004 57 209 0.0 0.9 0.00 0.00 0.00 95 1013.0
20260510084504 57 209 0.9 0.9 0.00 0.00 0.00 95 1013.0
20260510083503 57 209 0.9 0.9 0.00 0.00 0.00 95 1013.0
20260510083004 57 209 0.0 0.0 0.00 0.00 0.00 95 1013.0
20260510082503 57 209 0.0 0.9 0.00 0.00 0.00 95 1012.9
20260510082003 57 209 0.0 0.9 0.00 0.00 0.00 95 1012.9
20260510081503 57 209 0.0 0.0 0.00 0.00 0.00 95 1012.9
20260510081005 57 209 0.0 0.0 0.00 0.00 0.00 95 1012.8
20260510080504 57 209 0.0 0.0 0.00 0.00 0.00 95 1012.8
20260510080004 57 209 0.0 0.0 0.00 0.00 0.00 95 1012.8
20260510075504 57 209 0.0 0.0 0.00 0.00 0.00 95 1012.9
20260510075004 57 209 0.0 0.9 0.00 0.00 0.00 95 1012.9
20260510074504 57 209 0.0 0.0 0.00 0.00 0.00 95 1012.9
20260510074004 57 209 0.0 0.9 0.00 0.00 0.00 95 1012.9
20260510073504 57 209 0.0 0.0 0.00 0.00 0.00 95 1012.9
20260510073004 57 209 0.0 0.0 0.00 0.00 0.00 95 1012.8
20260510072004 57 209 0.0 0.9 0.00 0.00 0.00 95 1012.6
20260510071504 57 209 0.9 1.7 0.00 0.00 0.00 95 1012.7
20260510071005 57 209 0.9 0.9 0.00 0.00 0.00 95 1012.9
20260510070505 57 209 0.0 0.0 0.00 0.00 0.00 95 1012.9
20260510070005 57 209 0.0 0.0 0.00 0.00 0.00 95 1012.9
20260510065505 58 209 0.0 0.0 0.00 0.00 0.00 95 1012.8
20260510064505 58 209 0.0 0.9 0.00 0.00 0.00 95 1012.7
20260510064006 58 209 0.9 1.7 0.00 0.00 0.00 95 1012.6
20260510063505 58 209 0.0 0.9 0.00 0.00 0.00 95 1012.6
20260510063005 58 209 0.0 0.0 0.00 0.00 0.00 94 1012.6
20260510062505 58 209 0.0 0.0 0.00 0.00 0.00 94 1012.5
20260510062005 58 209 0.0 0.0 0.00 0.00 0.00 94 1012.5
20260510061505 58 209 0.0 0.0 0.00 0.00 0.00 94 1012.6
20260510061005 58 209 0.0 0.0 0.00 0.00 0.00 94 1012.9
20260510060505 58 209 0.0 0.0 0.00 0.00 0.00 94 1012.9
20260510060005 58 209 0.0 0.0 0.00 0.00 0.00 94 1012.9
20260510055505 58 209 0.0 0.0 0.00 0.00 0.00 94 1012.9
20260510055005 58 209 0.0 0.0 0.00 0.00 0.00 94 1012.9
20260510054005 58 209 0.0 0.0 0.00 0.00 0.00 94 1013.0
20260510053505 58 209 0.0 0.0 0.00 0.00 0.00 94 1013.0
20260510053005 58 209 0.0 0.0 0.00 0.00 0.00 94 1013.1
20260510052005 58 209 0.0 0.0 0.00 0.00 0.00 94 1013.2
20260510051505 58 209 0.0 0.0 0.00 0.00 0.00 94 1013.3
20260510051005 58 209 0.0 0.0 0.00 0.00 0.00 94 1013.4
20260510050505 59 209 0.0 0.0 0.00 0.00 0.00 94 1013.4
20260510045505 59 209 0.0 0.0 0.00 0.00 0.00 94 1013.4
20260510045005 59 209 0.0 0.0 0.00 0.00 0.00 94 1013.4
20260510044505 59 209 0.0 0.9 0.00 0.00 0.00 94 1013.4
20260510044005 59 209 0.0 0.9 0.00 0.00 0.00 94 1013.3
20260510043005 59 209 0.0 0.0 0.00 0.00 0.00 94 1013.3
20260510042505 59 209 0.0 0.0 0.00 0.00 0.00 94 1013.2
20260510042005 59 209 0.0 0.9 0.00 0.00 0.00 94 1013.2
20260510041505 59 209 0.0 0.0 0.00 0.00 0.00 94 1013.2
20260510041005 59 209 0.0 0.9 0.00 0.00 0.00 93 1013.0
20260510040506 60 209 0.9 0.9 0.00 0.00 0.00 93 1013.0
20260510040005 60 220 0.9 0.9 0.00 0.00 0.00 93 1013.0
20260510034505 60 255 0.0 0.0 0.00 0.00 0.00 93 1013.0
20260510033505 60 255 0.0 0.0 0.00 0.00 0.00 93 1013.0
20260510032505 60 255 0.9 0.9 0.00 0.00 0.00 93 1012.9
20260510032005 61 219 0.0 1.7 0.00 0.00 0.00 93 1012.9
20260510031505 61 251 0.9 1.7 0.00 0.00 0.00 93 1012.9
20260510031005 61 325 0.0 0.9 0.00 0.00 0.00 93 1012.8
20260510030505 61 325 0.0 0.9 0.00 0.00 0.00 93 1012.8
20260510030005 61 325 0.0 0.9 0.00 0.00 0.00 92 1012.7
20260510025505 61 325 0.0 0.0 0.00 0.00 0.00 93 1012.6
20260510025004 61 325 0.0 0.9 0.00 0.00 0.00 92 1012.6
20260510024508 61 325 0.9 0.9 0.00 0.00 0.00 92 1012.6
20260510023005 62 325 0.0 0.0 0.00 0.00 0.00 92 1012.5
20260510022505 62 325 0.0 0.0 0.00 0.00 0.00 92 1012.5
20260510022005 62 325 0.0 0.0 0.00 0.00 0.00 92 1012.5
20260510020506 63 325 0.0 0.0 0.00 0.00 0.00 91 1012.6
20260510020005 63 325 0.9 0.9 0.00 0.00 0.00 91 1012.5
20260510015505 63 325 0.0 0.0 0.00 0.00 0.00 91 1012.3
20260510014505 63 325 0.0 0.0 0.00 0.00 0.00 91 1012.3
20260510014005 64 325 0.0 0.0 0.00 0.00 0.00 91 1012.0
20260510013505 64 325 0.0 0.0 0.00 0.00 0.00 91 1012.0
20260510012505 64 325 0.9 0.9 0.00 0.00 0.00 90 1012.0
20260510012005 64 325 0.0 0.9 0.00 0.00 0.00 90 1012.0
20260510010505 65 325 0.0 1.7 0.00 0.00 0.00 89 1012.0
20260510010005 66 325 0.9 1.7 0.00 0.00 0.00 89 1012.0
20260510005505 66 325 0.0 0.9 0.00 0.00 0.00 88 1011.8
20260510004505 67 325 0.9 0.9 0.00 0.00 0.00 87 1011.8
20260510004005 67 325 0.0 0.9 0.00 0.00 0.00 87 1011.7
20260510003505 67 325 0.9 1.7 0.00 0.00 0.00 87 1011.7
20260510003005 68 269 0.0 0.9 0.00 0.00 0.00 86 1011.7
20260510002005 68 269 0.0 0.9 0.00 0.00 0.00 85 1011.8
20260510001505 69 269 0.9 0.9 0.00 0.00 0.00 84 1011.8
20260510001005 69 269 0.9 0.9 0.00 0.00 0.00 83 1011.7
20260510000505 70 269 0.9 0.9 0.00 0.00 0.00 82 1011.7
20260510000005 70 269 0.0 0.0 0.00 0.00 0.00 82 1011.6
20260509235005 71 240 0.0 0.9 0.00 0.00 0.00 80 1011.4
20260509234505 72 184 0.0 0.9 0.00 0.00 0.00 79 1011.4
20260509234005 72 186 0.0 0.0 0.00 0.00 0.00 79 1010.9
20260509233505 72 186 0.0 0.9 0.00 0.00 0.00 77 1010.9
20260509233005 72 186 0.9 1.7 0.00 0.00 0.00 77 1010.9
20260509232504 73 195 0.9 1.7 0.00 0.00 0.00 76 1010.9
20260509231505 73 203 1.7 2.6 0.00 0.00 0.00 73 1010.9
20260509231005 73 204 1.7 4.3 0.00 0.00 0.00 73 1010.9
20260509230505 74 221 1.7 4.3 0.00 0.00 0.00 72 1010.9
20260509230005 74 224 0.9 2.6 0.00 0.00 0.00 72 1010.9
20260509225505 74 255 0.9 2.6 0.00 0.00 0.00 72 1010.9
20260509225005 74 213 1.7 2.6 0.00 0.00 0.00 72 1010.9
20260509224504 74 219 0.9 1.7 0.00 0.00 0.00 72 1010.9
20260509224005 74 249 1.7 4.3 0.00 0.00 0.00 72 1010.9
20260509223505 74 292 0.9 2.6 0.00 0.00 0.00 73 1010.9
20260509222505 73 241 1.7 5.2 0.00 0.00 0.00 72 1011.1
20260509222005 73 279 2.6 5.2 0.00 0.00 0.00 72 1011.1
20260509221504 73 254 1.7 5.2 0.00 0.00 0.00 72 1011.1
20260509221005 73 192 2.6 6.1 0.00 0.00 0.00 72 1011.0
20260509220504 74 228 1.7 5.2 0.00 0.00 0.00 72 1011.0
20260509220005 74 257 1.7 6.1 0.00 0.00 0.00 71 1011.0
20260509215005 74 201 3.5 11.3 0.00 0.00 0.00 71 1010.9
20260509214505 74 221 1.7 10.4 0.00 0.00 0.00 71 1010.9
20260509213005 73 243 5.2 8.7 0.00 0.00 0.00 71 1011.0
20260509212505 73 220 2.6 5.2 0.00 0.00 0.00 72 1011.0